Location: OHP
(43.9325°N, 5.7154°E)
Time: 10:34:41
(UTC+01:00)

Envisat - Visible Passes

Search period start: 11 June 2026 00:00
Search period end: 21 June 2026 00:00
Orbit: 761 x 763 km, 98.4° (Epoch: 10 June)

Date Brightness Start Highest point End Pass type
(mag) Time Alt. Az. Time Alt. Az. Time Alt. Az.
11 Jun 4.0 02:44:06 10° NNE 02:48:53 41° E 02:52:57 14° SSE visible
12 Jun 5.1 02:07:13 10° NE 02:10:46 19° E 02:14:18 10° SE visible
12 Jun 3.3 03:45:05 10° N 03:50:01 55° WNW 03:54:49 11° SSW visible
13 Jun 3.2 03:07:11 10° NNE 03:12:15 68° ESE 03:16:32 14° S visible
14 Jun 4.4 02:29:48 10° NE 02:34:16 30° E 02:38:16 12° SSE visible
14 Jun 3.9 04:08:38 10° N 04:13:11 34° WNW 04:17:42 10° SW visible
15 Jun 5.4 01:53:31 10° ENE 01:56:04 14° E 01:58:35 10° ESE visible
15 Jun 3.0 03:30:28 10° N 03:35:32 75° WNW 03:40:07 13° SSW visible
16 Jun 3.7 02:52:45 10° NNE 02:57:41 50° E 03:01:49 14° S visible
17 Jun 4.9 02:15:38 10° NE 02:19:36 23° E 02:23:33 10° SE visible
17 Jun 3.5 03:53:55 10° N 03:58:44 46° WNW 04:03:32 10° SW visible
18 Jun 3.0 03:15:55 10° NNE 03:21:00 82° ESE 03:25:23 14° SSW visible
19 Jun 4.1 02:38:23 10° NNE 02:43:04 37° E 02:47:06 13° SSE visible
20 Jun 5.2 02:01:41 10° NE 02:04:55 17° E 02:08:07 10° SE visible
20 Jun 3.1 03:39:15 10° N 03:44:15 62° WNW 03:48:56 12° SSW visible
